Overview Statistics Trail Chart Weather Telemetry Raw packets
 

This is the latest recevied weather packets stored in our database for station/object HS5XHC-1. If no packets are shown the sender has not sent any weather packets the latest 10 day(s).

<< 34 35 36 37 38 39 40 >>
Time Temp. Humidity Pressure Rain* Wind** Luminosity Snow
1777361363 35° C 33% 963 hPa - - 0 W/m² -
1777360739 34.44° C 34% 963 hPa - - 0 W/m² -
1777360116 34.44° C 34% 963 hPa - - 0 W/m² -
1777359492 34.44° C 37% 963 hPa - - 0 W/m² -
1777358868 33.89° C 36% 964 hPa - - 0 W/m² -
1777358244 34.44° C 40% 964 hPa - - 0 W/m² -
1777357620 33.89° C 41% 964 hPa - - 0 W/m² -
1777356996 33.33° C 40% 964 hPa - - 0 W/m² -
1777356372 33.33° C 40% 965 hPa - - 0 W/m² -
1777355748 33.33° C 43% 965 hPa - - 0 W/m² -
1777355124 33.33° C 42% 965 hPa - - 0 W/m² -
1777354500 32.78° C 42% 965 hPa - - 0 W/m² -
1777353876 32.22° C 45% 966 hPa - - 0 W/m² -
1777353252 32.78° C 45% 966 hPa - - 0 W/m² -
1777352628 31.67° C 46% 966 hPa - - 0 W/m² -
1777352004 31.67° C 47% 966 hPa - - 0 W/m² -
1777351380 31.11° C 48% 966 hPa - - 0 W/m² -
1777350756 30.56° C 47% 967 hPa - - 0 W/m² -
1777350132 30.56° C 48% 967 hPa - - 0 W/m² -
1777349509 29.44° C 48% 967 hPa - - 0 W/m² -
1777348884 29.44° C 49% 967 hPa - - 0 W/m² -
1777348260 28.33° C 50% 967 hPa - - 0 W/m² -
1777347636 28.33° C 52% 967 hPa - - 0 W/m² -
1777347012 27.78° C 52% 967 hPa - - 0 W/m² -
1777346388 27.78° C 53% 968 hPa - - 0 W/m² -

* Rain since midnight (hover to see other rain measurements)
** Current wind speed in m/s (hover to see current wind gust speed)